This is the latest recevied weather packets stored in our database for station/object N6GPM. If no packets are shown the sender has not sent any weather packets the latest 10 day(s).
| Time | Temp. | Humidity | Pressure | Rain* | Wind** | Luminosity | Snow |
|---|---|---|---|---|---|---|---|
| 1787504858 | 33.33° C | 24% | 1018.4 hPa | 0 mm | - | 754 W/m² | - |
| 1787504555 | 33.89° C | 24% | 1018.5 hPa | 0 mm | - | 740 W/m² | - |
| 1787504249 | 33.33° C | 25% | 1018.7 hPa | 0 mm | - | 724 W/m² | - |
| 1787503945 | 33.33° C | 25% | 1018.6 hPa | 0 mm | - | 706 W/m² | - |
| 1787503640 | 33.33° C | 26% | 1018.5 hPa | 0 mm | - | 689 W/m² | - |
| 1787503337 | 32.78° C | 27% | 1018.5 hPa | 0 mm | - | 670 W/m² | - |
| 1787503032 | 32.22° C | 29% | 1018.4 hPa | 0 mm | - | 652 W/m² | - |
| 1787502727 | 31.67° C | 28% | 1018.4 hPa | 0 mm | - | 634 W/m² | - |
| 1787502422 | 31.67° C | 29% | 1018.3 hPa | 0 mm | - | 616 W/m² | - |
| 1787502121 | 31.67° C | 30% | 1018.2 hPa | 0 mm | - | 594 W/m² | - |
| 1787501817 | 31.11° C | 32% | 1018.4 hPa | 0 mm | - | 576 W/m² | - |
| 1787501514 | 30.56° C | 33% | 1018.2 hPa | 0 mm | - | 557 W/m² | - |
| 1787501210 | 30.56° C | 34% | 1018.2 hPa | 0 mm | - | 539 W/m² | - |
| 1787500906 | 30° C | 35% | 1018.2 hPa | 0 mm | - | 517 W/m² | - |
| 1787500601 | 30° C | 35% | 1018.4 hPa | 0 mm | - | 491 W/m² | - |
| 1787500297 | 29.44° C | 36% | 1018.4 hPa | 0 mm | - | 472 W/m² | - |
| 1787499995 | 29.44° C | 36% | 1018.2 hPa | 0 mm | - | 451 W/m² | - |
| 1787499691 | 29.44° C | 36% | 1018.4 hPa | 0 mm | - | 430 W/m² | - |
| 1787499391 | 28.33° C | 38% | 1018.3 hPa | 0 mm | - | 409 W/m² | - |
| 1787499087 | 27.78° C | 39% | 1018.3 hPa | 0 mm | - | 388 W/m² | - |
| 1787498784 | 27.78° C | 37% | 1018.4 hPa | 0 mm | - | 367 W/m² | - |
| 1787498481 | 27.78° C | 37% | 1018.4 hPa | 0 mm | - | 339 W/m² | - |
| 1787498176 | 27.78° C | 37% | 1018.3 hPa | 0 mm | - | 322 W/m² | - |
| 1787497873 | 27.78° C | 36% | 1018.1 hPa | 0 mm | - | 303 W/m² | - |
| 1787497568 | 27.78° C | 36% | 1018.2 hPa | 0 mm | - | 281 W/m² | - |
* Rain latest hour (hover to see other rain measurements)
** Current wind speed in m/s (hover to see current wind gust speed)